Погода в Самарге

Россия / Приморский край     47°15′06″N   138°48′07″E
темп.,
°C
ветер,
м/с
пор.,
м/с
влажн.,
%
обл.,
%
осадки,
мм/ч
давл.,
гПа
погр.,
м
14 мая, пт
пт1401:00+5зюз11957 0.1 101010
04:00+5зсз119410 0.3 100912
07:00+8з12842 0.0 101077
10:00+16з38424 0.0 10091745
13:00+18сз2831100 0.0 10092603
16:00+19с383052 0.0 10092966
19:00+10вюв23693 0.0 101193
22:00+7св22785 0.0 101420
15 мая, сб
сб1501:00+6всв2287100 0.0 101434
04:00+5св2291100 0.0 101438
07:00+6в2284100 0.0 101388
10:00+6в3394100 1.7 1011167
13:00+4ююв2499100 3.9 1008210
16:00+5ююв0298100 4.8 1005235
19:00+5з1299100 0.8 100391
22:00+8зюз2296100 2.3 100341
16 мая, вс
вс1601:00+7юз3695100 0.0 1003119
04:00+7зюз2394100 0.0 100336
07:00+8зюз2789100 0.0 1003172
10:00+15зюз51151100 0.0 10011674
13:00+18з61239100 0.0 9991786
16:00+19з61138100 0.0 9991820
19:00+15з115458 0.0 100116
22:00+10зсз22690 0.0 100311
17 мая, пн
пн1701:00+8зсз32720 0.0 100225
04:00+7зсз32743 0.0 100234
07:00+10зсз23660 0.0 100189
10:00+18зюз24422 0.0 1001968
13:00+18ююв353981 0.0 1000980
16:00+20зсз253058 0.0 9992626
19:00+16св25515 0.0 1002146
22:00+12сз226291 0.0 100523
18 мая, вт
вт1801:00+10зсз2271100 0.0 100524
04:00+9зсз327529 0.0 100539
07:00+12зсз2366100 0.0 100678
10:00+18ююз2341100 0.0 1005420
13:00+18ю3543100 0.0 1005515
16:00+16ю3549100 0.0 1004316
19:00+12юв1266100 0.0 100371
22:00+9юз0071100 0.0 100311